| time (UTC) | temp F | wind direction | speed knots | gust knots | rain 1hr in | rain 24hr in | rain mn in | humidity % | barometer mb |
| 20260906031525 | 72 | 155 | 0.0 | 0.0 | 0.00 | 0.38 | 0.38 | 90 | 1010.9 |
| 20260906030024 | 72 | 155 | 0.0 | 0.0 | 0.00 | 0.38 | 0.38 | 90 | 1011.0 |
| 20260906024523 | 72 | 155 | 0.0 | 1.7 | 0.00 | 0.38 | 0.38 | 90 | 1010.7 |
| 20260906023024 | 72 | 155 | 0.0 | 0.0 | 0.00 | 0.38 | 0.38 | 90 | 1010.9 |
| 20260906021523 | 73 | 155 | 0.0 | 0.0 | 0.00 | 0.38 | 0.38 | 89 | 1010.8 |
| 20260906020022 | 73 | 155 | 0.0 | 2.6 | 0.00 | 0.38 | 0.38 | 89 | 1010.7 |
| 20260906014526 | 73 | 155 | 0.0 | 0.0 | 0.00 | 0.38 | 0.38 | 89 | 1010.6 |
| 20260906013021 | 74 | 155 | 0.0 | 0.0 | 0.00 | 0.38 | 0.38 | 89 | 1010.3 |
| 20260906011520 | 74 | 155 | 0.0 | 0.0 | 0.00 | 0.38 | 0.38 | 88 | 1009.9 |
| 20260906010021 | 74 | 155 | 0.0 | 1.7 | 0.00 | 0.38 | 0.38 | 88 | 1009.8 |
| 20260906004520 | 74 | 155 | 0.0 | 1.7 | 0.00 | 0.38 | 0.38 | 87 | 1009.9 |
| 20260906003019 | 75 | 155 | 0.0 | 2.6 | 0.00 | 0.38 | 0.38 | 87 | 1009.8 |
| 20260906001518 | 75 | 155 | 0.0 | 0.0 | 0.00 | 0.38 | 0.38 | 86 | 1009.3 |
| 20260906000018 | 75 | 155 | 0.0 | 0.0 | 0.00 | 0.38 | 0.38 | 86 | 1009.3 |
| 20260905234519 | 75 | 155 | 0.0 | 0.9 | 0.00 | 0.38 | 0.38 | 86 | 1009.3 |
| 20260905233017 | 75 | 155 | 0.0 | 0.0 | 0.00 | 0.38 | 0.38 | 86 | 1009.4 |
| 20260905231520 | 76 | 155 | 0.0 | 0.0 | 0.00 | 0.38 | 0.38 | 86 | 1009.4 |
| 20260905230016 | 76 | 155 | 0.0 | 0.0 | 0.00 | 0.38 | 0.38 | 86 | 1009.2 |
| 20260905224534 | 76 | 155 | 0.0 | 0.0 | 0.00 | 0.38 | 0.38 | 86 | 1009.3 |
| 20260905223018 | 76 | 155 | 0.0 | 0.0 | 0.00 | 0.38 | 0.38 | 87 | 1009.3 |
| 20260905221515 | 76 | 155 | 0.0 | 0.0 | 0.00 | 0.38 | 0.38 | 88 | 1009.2 |
| 20260905220013 | 76 | 155 | 0.0 | 0.0 | 0.00 | 0.38 | 0.38 | 89 | 1009.2 |
| 20260905214514 | 76 | 155 | 0.0 | 0.0 | 0.00 | 0.38 | 0.38 | 89 | 1008.9 |
| 20260905213012 | 75 | 155 | 0.0 | 0.0 | 0.00 | 0.38 | 0.38 | 90 | 1009.1 |
| 20260905211534 | 75 | 155 | 0.0 | 0.9 | 0.00 | 0.38 | 0.38 | 90 | 1008.9 |
| 20260905210019 | 75 | 155 | 0.0 | 0.0 | 0.00 | 0.38 | 0.38 | 91 | 1008.9 |
| 20260905204510 | 74 | 155 | 0.0 | 0.0 | 0.00 | 0.38 | 0.38 | 92 | 1009.0 |
| 20260905203010 | 74 | 155 | 0.0 | 5.2 | 0.00 | 0.38 | 0.38 | 92 | 1009.0 |
| 20260905201510 | 73 | 155 | 0.0 | 0.0 | 0.00 | 0.38 | 0.38 | 92 | 1009.0 |
| 20260905200020 | 73 | 155 | 0.0 | 0.0 | 0.00 | 0.38 | 0.38 | 92 | 1009.1 |
| 20260905194509 | 74 | 155 | 0.0 | 0.9 | 0.00 | 0.38 | 0.38 | 92 | 1009.2 |
| 20260905193010 | 74 | 153 | 0.0 | 0.9 | 0.00 | 0.38 | 0.38 | 92 | 1009.3 |
| 20260905191506 | 74 | 153 | 0.0 | 0.9 | 0.00 | 0.38 | 0.38 | 93 | 1009.3 |
| 20260905190006 | 73 | 153 | 0.0 | 0.9 | 0.00 | 0.38 | 0.38 | 92 | 1009.6 |
| 20260905184511 | 73 | 153 | 0.0 | 1.7 | 0.00 | 0.38 | 0.38 | 92 | 1009.7 |
| 20260905183002 | 73 | 153 | 0.0 | 2.6 | 0.00 | 0.38 | 0.38 | 92 | 1010.2 |
| 20260905181501 | 73 | 43 | 0.0 | 0.9 | 0.00 | 0.38 | 0.38 | 91 | 1010.1 |
| 20260905180106 | 73 | 43 | 0.0 | 0.0 | 0.01 | 0.38 | 0.38 | 90 | 1009.5 |
| 20260905174600 | 72 | 43 | 0.0 | 1.7 | 0.03 | 0.38 | 0.38 | 89 | 1009.1 |
| 20260905173128 | 72 | 43 | 0.0 | 0.0 | 0.16 | 0.38 | 0.38 | 88 | 1009.2 |
| 20260905171600 | 72 | 43 | 0.0 | 0.9 | 0.36 | 0.38 | 0.38 | 87 | 1009.8 |
| 20260905170112 | 72 | 43 | 0.0 | 0.0 | 0.37 | 0.37 | 0.37 | 85 | 1009.9 |
| 20260905164606 | 73 | 43 | 0.0 | 0.9 | 0.35 | 0.35 | 0.35 | 82 | 1010.5 |
| 20260905163103 | 76 | 254 | 0.9 | 5.2 | 0.19 | 0.19 | 0.19 | 78 | 1012.1 |
| 20260905161606 | 78 | 325 | 0.0 | 0.9 | 0.01 | 0.01 | 0.01 | 73 | 1011.6 |
| 20260905160053 | 78 | 325 | 0.0 | 4.3 | 0.00 | 0.00 | 0.00 | 72 | 1011.1 |
| 20260905154559 | 79 | 322 | 0.0 | 2.6 | 0.00 | 0.00 | 0.00 | 72 | 1010.9 |
| 20260905153051 | 79 | 322 | 0.0 | 2.6 | 0.00 | 0.00 | 0.00 | 73 | 1010.5 |
| 20260905151551 | 79 | 320 | 0.0 | 2.6 | 0.00 | 0.00 | 0.00 | 72 | 1010.4 |
| 20260905150052 | 79 | 320 | 0.0 | 3.5 | 0.00 | 0.00 | 0.00 | 72 | 1011.0 |
| 20260905144546 | 77 | 315 | 0.0 | 0.9 | 0.00 | 0.00 | 0.00 | 78 | 1010.8 |
| 20260905143043 | 77 | 315 | 0.0 | 3.5 | 0.00 | 0.00 | 0.00 | 81 | 1011.1 |
| 20260905141541 | 76 | 315 | 0.0 | 0.0 | 0.00 | 0.00 | 0.00 | 85 | 1010.8 |
| 20260905140038 | 76 | 313 | 0.0 | 1.7 | 0.00 | 0.00 | 0.00 | 88 | 1010.6 |
| 20260905134536 | 75 | 312 | 0.0 | 2.6 | 0.00 | 0.00 | 0.00 | 90 | 1010.3 |
| 20260905133036 | 74 | 312 | 0.0 | 4.3 | 0.00 | 0.00 | 0.00 | 92 | 1010.1 |
| 20260905131528 | 73 | 74 | 0.0 | 1.7 | 0.00 | 0.00 | 0.00 | 92 | 1010.2 |
| 20260905130023 | 72 | 76 | 0.0 | 0.0 | 0.00 | 0.00 | 0.00 | 92 | 1010.1 |
| 20260905124520 | 72 | 76 | 0.0 | 0.0 | 0.00 | 0.00 | 0.00 | 92 | 1010.1 |
| 20260905123019 | 71 | 76 | 0.0 | 0.0 | 0.00 | 0.00 | 0.00 | 92 | 1010.1 |
| 20260905121518 | 70 | 76 | 0.0 | 0.0 | 0.00 | 0.00 | 0.00 | 92 | 1010.2 |
| 20260905120017 | 70 | 76 | 0.0 | 0.0 | 0.00 | 0.00 | 0.00 | 92 | 1010.2 |
| 20260905114516 | 69 | 76 | 0.0 | 0.0 | 0.00 | 0.01 | 0.00 | 92 | 1009.8 |
| 20260905113013 | 69 | 76 | 0.0 | 0.0 | 0.00 | 0.01 | 0.00 | 92 | 1009.9 |
| 20260905111511 | 69 | 76 | 0.0 | 0.0 | 0.00 | 0.01 | 0.00 | 92 | 1009.9 |
| 20260905110011 | 69 | 76 | 0.0 | 0.0 | 0.00 | 0.01 | 0.00 | 92 | 1009.3 |
| 20260905104510 | 69 | 76 | 0.0 | 0.0 | 0.00 | 0.01 | 0.00 | 92 | 1009.3 |
| 20260905103009 | 70 | 76 | 0.0 | 0.0 | 0.00 | 0.01 | 0.00 | 92 | 1009.3 |
| 20260905101508 | 70 | 76 | 0.0 | 0.0 | 0.00 | 0.01 | 0.00 | 92 | 1009.0 |
| 20260905100007 | 70 | 76 | 0.0 | 0.0 | 0.00 | 0.01 | 0.00 | 92 | 1009.0 |
| 20260905094508 | 70 | 76 | 0.0 | 0.0 | 0.00 | 0.01 | 0.00 | 91 | 1008.6 |
| 20260905093004 | 70 | 76 | 0.0 | 0.0 | 0.00 | 0.01 | 0.00 | 91 | 1008.5 |
| 20260905091505 | 70 | 76 | 0.0 | 0.0 | 0.00 | 0.01 | 0.00 | 91 | 1008.4 |
| 20260905090007 | 70 | 76 | 0.0 | 0.0 | 0.00 | 0.01 | 0.00 | 91 | 1008.5 |
| 20260905084502 | 70 | 76 | 0.0 | 0.0 | 0.00 | 0.01 | 0.00 | 91 | 1008.7 |
| 20260905083122 | 70 | 76 | 0.0 | 0.9 | 0.00 | 0.01 | 0.00 | 91 | 1008.8 |
| 20260905081605 | 71 | 76 | 0.0 | 0.0 | 0.00 | 0.01 | 0.00 | 91 | 1009.0 |
| 20260905080057 | 71 | 76 | 0.0 | 0.0 | 0.00 | 0.01 | 0.00 | 90 | 1009.2 |
| 20260905074556 | 71 | 76 | 0.0 | 0.9 | 0.00 | 0.01 | 0.00 | 90 | 1009.3 |
| 20260905073058 | 71 | 76 | 0.0 | 0.9 | 0.00 | 0.01 | 0.00 | 90 | 1009.3 |
| 20260905071556 | 71 | 76 | 0.0 | 0.0 | 0.00 | 0.01 | 0.00 | 90 | 1009.4 |
| 20260905070054 | 71 | 76 | 0.0 | 0.9 | 0.00 | 0.01 | 0.00 | 90 | 1009.6 |
| 20260905064610 | 71 | 76 | 0.0 | 0.0 | 0.00 | 0.01 | 0.00 | 90 | 1009.8 |
| 20260905063052 | 71 | 76 | 0.0 | 0.9 | 0.00 | 0.01 | 0.00 | 90 | 1010.2 |
| 20260905061548 | 71 | 76 | 0.0 | 0.9 | 0.00 | 0.01 | 0.00 | 90 | 1010.4 |
| 20260905060047 | 71 | 76 | 0.0 | 0.9 | 0.00 | 0.01 | 0.00 | 90 | 1010.5 |
| 20260905054622 | 71 | 76 | 0.0 | 0.9 | 0.00 | 0.16 | 0.00 | 90 | 1010.6 |
| 20260905053045 | 72 | 76 | 0.0 | 0.0 | 0.00 | 0.16 | 0.00 | 89 | 1010.7 |
| 20260905051541 | 72 | 76 | 0.0 | 0.9 | 0.00 | 0.16 | 0.00 | 89 | 1010.9 |
| 20260905050038 | 72 | 76 | 0.0 | 0.0 | 0.00 | 0.16 | 0.00 | 89 | 1011.1 |
| 20260905044537 | 72 | 69 | 0.0 | 0.9 | 0.00 | 0.16 | 0.16 | 89 | 1011.1 |
| 20260905043036 | 72 | 69 | 0.0 | 0.9 | 0.00 | 0.16 | 0.16 | 89 | 1011.2 |
| 20260905041539 | 72 | 69 | 0.0 | 0.9 | 0.00 | 0.16 | 0.16 | 88 | 1011.3 |
| 20260905040038 | 72 | 69 | 0.0 | 0.0 | 0.00 | 0.16 | 0.16 | 88 | 1011.4 |
| 20260905034535 | 72 | 69 | 0.0 | 0.0 | 0.00 | 0.16 | 0.16 | 88 | 1011.5 |
| 20260905033039 | 73 | 69 | 0.0 | 0.0 | 0.00 | 0.16 | 0.16 | 88 | 1011.3 |